Location: Crocus Hill
(18.2167°N, 63.0667°W)
Time: 05:08:24
(UTC+00:00)

Cosmos 2297 Rocket - Pass Details

Date: 26 January 2020
Orbit: 838 x 845 km, 71.0° (Epoch: 17 February)

Event Time Altitude Azimuth Distance (km) Brightness Sun altitude
Exits shadow 09:22:02 11° 222° (SW) 2,387 4.3 -20.1°
Drops below altitude 10° 09:22:20 10° 220° (SW) 2,455 4.4 -20.0°
Sets 09:25:39 0° 200° (SSW) 3,386 5.3 -19.3°
